Вернуться в каталог

SL-12 R/B(2)

АктивенGEO
NORAD 16797·ROCKET BODY·🇷🇺 Russia

Запущен Jun 10, 1986 с Baikonur Cosmodrome

Loading…

TLE

СвежийSource: Space-Track

Эпоха: Sep 14, 2026, 11:59 UTC

1 16797U 86044F   26257.49947543 -.00000146  00000-0  00000-0 0  9991
2 16797  11.2567 324.6725 0009804 217.0821 185.5180  0.97670860143723

Отслеживайте SL-12 R/B(2) в реальном времени с AllMySat

Download on the App Store